ATLAS 5 CENTAUR DEB, 44006

Orbit data source: Space-Track

ATLAS 5 CENTAUR DEB, 44006 is space debris in HEO originally from a launch on Wed, 17 Sep 2014 UTC launched from the Air Force Eastern Test Range (AFETR). Debris objects in space refer to the collection of defunct objects orbiting the Earth. Examples of debris include non-operational satellites, rocket bodies, and fragments generated from explosions, collisions, or faulty payload assembly.

Loading next visibility...
Identifier
44006, 2014-055BM
Orbit
HEO
Country
Flag of USUS
Related business
Flag of USUnited Launch Alliance/Lockheed Martin (US)
Manufacturer
Unknown
Mission
Spacecraft
Bus & Motor
Unknown
Mass
Unknown
Launch date (UTC)
2014-09-17 (11 years ago)
Launch vehicle
Unknown
Launch site
Air Force Eastern Test Range (AFETR)
Object type
Payload
Rocket body
Debris
Shape & HBR
Unknown shape, 1.1 m
Radar Cross Section
Small (<0.1 m²)

Expand to show TLE details & history
Last TLE update: 14 hours ago

TLE from 14 hours ago
0 ATLAS 5 CENTAUR DEB
1 44006U 14055BM  26065.57711992 -.00000108  00000-0  00000-0 0  9999
2 44006  20.4614 137.6530 4904019 178.9389 182.6965  1.88618400 51313
Epoch: 2026-03-06T13:51Z
TLE epoch observation values (Epoch: 2026-03-06T13:51:03.161Z)
Latitude
-0.00001°
Longitude
125.60975°
Altitude
34,863.107 km
Speed
2.219 km/s
True Right ascension
09h 10m 44s
True Declination
0° 00' 00"
Sunlit
Object was in daylight at epoch
Visualization orbit readout
Latitude
Unknown
Longitude
Unknown
Altitude
Unknown
Speed
Unknown
Apparent Right ascension
Unknown
Apparent Declination
Unknown
Sunlit
N/A
Visualization observer readout
Local Sidereal Time
07:32:56
Azimuth
Unknown
Elevation
Unknown
Doppler factor
Unknown
Orbital elements
Apogee altitude
34,864.55 km
Perigee altitude
7,723.559 km
Semi-major axis
27,672.192 km
Eccentricity
0.4904
Inclination
20.4614°
RAAN
137.653°
Arg. of periapsis
178.9389°
True anomaly
181.05805°
Mean anomaly
182.6965°
Eccentric anomaly
181.80934°
Mean motion
0.4715 °/min
Orbital period
763.53 mins
BSTAR
0
Loading maneuver chart data...
Computing Atmospheric mass density...

Documentation

Showing up to 5 results
|